Temp
-2 -2 -2 -2 -2 -2 -2 -3 -2 -2 -3 -3 -3 -3 -3 -3 -3 -3 -4 -4 -4 -4 -3 -3 -3 -3 -2 -2 -3 -1 -2 -1 0 1 2 2 2 3 4 2 3 2 2 2 3 3 2 6 6 6 5 8 8 8
-2 -2 -2 -2 -2 -2 -3 -3 -3 -3 -3 -3 -3 -3 -3 -3 -3 -3 -4 -3 -4 -4 -4 -3 -3 -2 -2 -2 -2 -2 -1 -0 -2 1 2 1 2 1 3 3 4 2 2 1 2 1 3 6 7 8 7 6 7 8
-2 -2 -2 -2 -3 -3 -3 -3 -3 -3 -3 -3 -3 -3 -3 -3 -3 -3 -4 -4 -4 -4 -4 -4 -4 -2 -2 -3 -2 -3 -2 -1 -2 -1 -0 1 2 1 2 2 3 3 3 1 3 4 3 6 6 6 7 7 7 7
-2 -2 -3 -3 -3 -3 -3 -3 -3 -3 -3 -3 -3 -3 -3 -3 -4 -4 -4 -4 -4 -4 -3 -2 -1 -1 -1 -2 -2 -2 -2 -1 -1 -2 -0 1 1 2 1 2 2 2 2 2 0 2 4 6 6 6 6 6 7 7
-2 -2 -3 -3 -3 -3 -3 -3 -4 -3 -3 -3 -3 -3 -4 -4 -3 -3 -3 -3 -3 -3 -3 -2 -2 -1 -1 -2 -2 -2 -3 -3 -2 -2 0 1 1 1 -1 -1 1 1 1 0 0 4 4 5 6 5 5 5 4 5
-3 -3 -3 -3 -3 -3 -3 -4 -4 -3 -3 -3 -4 -4 -3 -3 -3 -3 -2 -3 -3 -3 -3 -2 -1 -1 -1 -1 -2 -1 -2 -2 -2 -0 -0 1 3 1 0 -0 1 3 5 6 3 6 6 6 5 6 5 5 5 4
-3 -3 -3 -3 -3 -4 -4 -4 -3 -3 -4 -4 -3 -3 -2 -3 -3 -3 -2 -2 -1 -3 -3 -2 -1 -1 -1 -1 -1 -1 -1 -1 -0 0 -0 0 1 1 -3 -1 2 4 5 5 5 4 4 5 5 5 4 4 4 3
-3 -3 -3 -3 -4 -4 -4 -3 -3 -4 -3 -3 -3 -3 -2 -2 -2 -2 -2 -2 -2 -3 -2 -1 -0 -1 -0 -1 -1 -1 -1 0 0 -0 0 -1 1 -0 -2 0 4 6 6 5 5 5 5 5 5 4 4 4 2 2
-3 -3 -3 -3 -4 -4 -3 -3 -3 -4 -4 -3 -3 -2 -2 -2 -2 -1 -2 -2 -2 -1 -2 -3 -3 -2 -1 -1 -0 1 1 -2 -1 -2 -1 -0 -3 -1 0 2 3 5 4 5 4 5 5 3 4 3 3 3 1 1
-3 -3 -3 -3 -3 -3 -3 -3 -3 -3 -3 -2 -1 -1 -1 -1 -1 -1 -1 -1 -2 -1 -1 -5 -2 -2 -1 -0 -2 -2 -2 -3 -3 -2 -1 -3 -2 2 4 4 5 5 5 4 3 2 2 2 2 2 3 2 2 1
-3 -3 -3 -3 -4 -4 -3 -3 -3 -3 -3 -2 -2 -1 -1 -0 -1 -1 -1 -2 -2 -4 -2 -2 -2 -2 -1 -2 -3 -1 -3 -3 -2 -2 -2 -2 -2 -1 4 4 4 4 4 4 3 3 2 2 3 2 1 1 0 0
-3 -3 -3 -4 -4 -3 -4 -3 -3 -3 -2 -2 -2 -2 -2 -1 -1 -4 -5 -3 -3 -2 -2 -3 -2 -1 -1 -0 -4 -3 -2 -3 -0 -3 -2 -3 -3 -0 1 2 3 3 3 3 3 3 2 2 2 1 1 0 -1 -1
-4 -4 -4 -4 -3 -3 -3 -4 -4 -3 -2 -2 -2 -2 -2 -3 -7 -5 -6 -3 -5 -3 -2 -1 -2 -2 -2 -1 -2 -2 -4 -3 -2 -4 -1 -1 -1 -1 -1 0 1 1 2 3 3 2 2 2 1 -0 -0 -1 -2 -2
-5 -4 -3 -3 -3 -3 -3 -4 -3 -3 -2 -2 -3 -5 -5 -6 -4 -5 -4 -3 -1 -1 -1 -1 -2 -2 -3 -2 -3 -1 -2 -0 0 -2 0 -1 -1 -1 -1 -1 0 0 0 0 0 0 0 -0 -1 -2 -2 -2 -3 -3
-2 -2 -3 -2 -2 -3 -3 -3 -3 -3 -2 -3 -3 -3 -2 -2 -2 -2 -2 -2 -1 -1 -2 -1 -1 -1 -1 -3 -2 -2 -2 -1 -3 -4 -3 -1 -1 -1 -1 -1 -0 -0 -1 -1 -1 -1 -1 -2 -2 -3 -3 -4 -4 -4
-3 -3 -3 -3 -3 -3 -3 -3 -3 -3 -3 -2 -3 -2 -2 -4 -4 -2 -2 -3 -1 -1 -1 -1 -1 -1 -1 -1 -2 -2 -1 -3 -4 -7 -1 -0 -1 -1 -1 -1 -1 -1 -2 -2 -2 -2 -3 -3 -4 -4 -5 -5 -5 -5
-3 -3 -3 -3 -3 -4 -4 -4 -3 -3 -3 -2 -2 -2 -2 -2 -3 -2 -2 -1 -1 -1 -3 -2 -2 0 -2 -2 -1 -2 -4 -6 -3 -1 -0 -0 -0 -0 -0 -1 -1 -2 -3 -4 -5 -5 -5 -6 -6 -6 -6 -7 -7 -6
-3 -2 -2 -3 -3 -3 -3 -3 -3 -2 -2 -1 -3 -1 -2 -1 -2 -2 -1 -1 -1 -1 -1 -1 -1 0 -4 -1 -3 -5 -1 -1 -2 -1 -0 -0 -0 -0 -1 -1 -2 -3 -5 -6 -6 -6 -6 -6 -7 -7 -7 -8 -8 -7
-2 -2 -2 -2 -3 -3 -3 -3 -3 -2 -1 -1 -0 -1 -1 -0 -0 -0 -1 -1 -1 -1 -1 -1 -2 -2 -4 -4 -6 -2 -2 -2 -2 -2 -2 -2 -1 -1 -2 -3 -4 -6 -6 -6 -6 -7 -7 -7 -7 -7 -8 -9 -8 -7
-1 -1 -2 -2 -2 -3 -2 -2 -2 -1 -1 -0 -1 -0 -0 -0 0 -0 -0 -1 -1 -1 -1 -2 -3 -1 -1 1 1 0 0 -1 -2 -3 -4 -3 -3 -3 -3 -4 -5 -5 -6 -6 -7 -7 -7 -7 -7 -8 -8 -8 -8 -8
-1 -1 -2 -2 -3 -3 -2 -1 -1 -0 0 -0 -0 -0 -0 -1 -1 0 -0 -0 -1 -1 -3 1 1 2 1 0 -0 -0 -0 -1 -2 -2 -3 -3 -3 -3 -4 -5 -5 -5 -6 -6 -6 -7 -7 -7 -7 -7 -7 -8 -8 -8
-1 -2 -2 -2 -2 -2 -3 -1 -0 -0 -1 -1 -1 -1 -1 -5 -1 -0 0 -1 -1 0 1 2 2 2 1 -0 -1 -1 -1 -1 -2 -2 -2 -2 -3 -4 -4 -5 -5 -5 -5 -4 -5 -5 -5 -6 -6 -6 -6 -7 -7 -7
-2 -2 -2 -2 -2 -2 -2 -2 -1 -1 -4 -3 -2 -3 -5 -4 -0 -0 -2 -1 -0 0 1 1 1 0 -1 -1 -2 -2 -2 -2 -2 -2 -3 -3 -3 -4 -4 -5 -4 -4 -4 -4 -5 -5 -5 -5 -6 -6 -6 -6 -6 -7
-2 -2 -2 -2 -2 -7 -3 -2 -2 -2 -3 -2 -4 -4 -4 -5 -2 -4 -5 -2 0 0 0 -0 -1 -1 -2 -2 -3 -3 -3 -3 -3 -3 -3 -3 -3 -4 -4 -4 -4 -4 -4 -4 -5 -5 -5 -5 -5 -6 -6 -6 -6 -7
-3 -3 -3 -9 -5 -5 -6 -8 -7 -3 -6 -6 -3 -6 -5 -2 -6 -7 -5 -4 -4 -3 -2 -2 -2 -2 -2 -2 -3 -4 -4 -4 -4 -3 -4 -4 -4 -4 -4 -4 -4 -5 -5 -5 -5 -5 -5 -5 -5 -6 -6 -6 -6 -7
-9 -4 -8 -9 -10 -6 -7 -9 -10 -9 -8 -7 -7 -5 -3 -7 -6 -6 -4 -2 -1 -2 -2 -3 -2 -2 -3 -3 -3 -4 -4 -4 -5 -5 -4 -4 -4 -4 -4 -4 -4 -5 -5 -5 -5 -5 -5 -5 -6 -6 -6 -6 -7 -7
-10 -11 -4 -4 -4 -3 -7 -5 -4 -8 -9 -8 -9 -10 -11 -9 -10 -7 -3 -2 -2 -2 -3 -3 -3 -3 -3 -3 -4 -4 -4 -4 -4 -4 -4 -5 -5 -5 -5 -5 -5 -5 -5 -5 -6 -6 -6 -6 -6 -6 -6 -7 -7 -7
-5 -5 -9 -4 -4 -3 -7 -10 -10 -8 -7 -4 -7 -8 -9 -9 -8 -2 -2 -2 -2 -2 -2 -3 -3 -3 -3 -4 -4 -4 -4 -4 -5 -4 -4 -5 -5 -5 -5 -5 -5 -5 -6 -6 -6 -7 -7 -7 -6 -7 -7 -7 -8 -8
-5 -4 -4 -10 -6 -6 -7 -7 -8 -3 -3 -3 -9 -10 -8 -3 -2 -2 -2 -2 -3 -3 -3 -3 -3 -3 -3 -3 -4 -3 -4 -4 -4 -5 -5 -5 -5 -5 -5 -5 -6 -6 -6 -6 -7 -7 -8 -8 -8 -8 -8 -8 -9 -9
-5 -5 -6 -11 -11 -9 -5 -4 -3 -3 -3 -3 -3 -3 -3 -2 -2 -2 -2 -2 -2 -2 -3 -3 -4 -4 -4 -4 -4 -4 -4 -4 -4 -4 -4 -4 -4 -4 -5 -5 -6 -6 -7 -7 -7 -8 -8 -8 -8 -9 -9 -9 -9 -9
-5 -5 -5 -6 -9 -4 -4 -4 -4 -4 -4 -4 -4 -4 -4 -4 -3 -2 -3 -3 -3 -4 -4 -5 -5 -5 -5 -5 -5 -5 -5 -5 -5 -5 -4 -4 -5 -5 -5 -5 -6 -6 -6 -7 -8 -8 -8 -9 -9 -9 -9 -10 -10 -9
-5 -5 -8 -9 -7 -5 -5 -5 -5 -5 -5 -5 -5 -5 -5 -5 -5 -5 -4 -4 -4 -4 -4 -5 -5 -5 -6 -6 -6 -6 -5 -6 -6 -6 -6 -5 -5 -6 -6 -6 -6 -6 -6 -7 -7 -8 -9 -9 -10 -10 -10 -10 -10 -10
-6 -6 -6 -6 -7 -7 -5 -6 -6 -7 -6 -6 -5 -5 -5 -5 -7 -4 -4 -4 -4 -4 -5 -5 -5 -5 -5 -6 -6 -6 -6 -6 -6 -6 -6 -6 -6 -6 -6 -6 -6 -6 -7 -7 -8 -8 -9 -10 -10 -10 -10 -10 -11 -10
Height
1393 1396 1400 1403 1406 1409 1413 1417 1421 1424 1426 1429 1431 1433 1435 1438 1440 1442 1441 1445 1448 1444 1438 1443 1445 1445 1444 1445 1447 1444 1446 1437 1437 1431 1430 1423 1422 1416 1417 1418 1416 1425 1433 1433 1436 1437 1435 1411 1415 1417 1412 1406 1405 1403
1390 1393 1396 1399 1402 1406 1410 1413 1416 1419 1422 1424 1426 1428 1430 1432 1434 1437 1436 1439 1443 1442 1432 1433 1431 1432 1434 1437 1441 1441 1437 1433 1434 1422 1419 1418 1417 1416 1410 1413 1407 1421 1415 1423 1424 1425 1410 1407 1406 1405 1403 1403 1402 1401
1388 1391 1394 1397 1400 1403 1406 1408 1411 1414 1416 1418 1420 1422 1423 1425 1427 1429 1428 1431 1435 1434 1426 1423 1416 1417 1424 1423 1428 1430 1424 1430 1426 1426 1416 1408 1407 1401 1405 1408 1404 1405 1404 1413 1414 1407 1405 1405 1404 1403 1401 1399 1398 1399
1385 1388 1390 1393 1396 1399 1401 1404 1407 1409 1411 1413 1414 1415 1415 1416 1417 1419 1417 1421 1424 1425 1416 1399 1405 1403 1404 1408 1409 1408 1413 1422 1419 1422 1408 1400 1399 1388 1394 1394 1398 1397 1400 1404 1409 1403 1401 1400 1399 1399 1399 1399 1398 1397
1383 1385 1388 1391 1394 1396 1399 1401 1403 1405 1407 1408 1408 1407 1406 1404 1403 1404 1404 1405 1408 1415 1405 1397 1396 1394 1393 1392 1389 1394 1400 1406 1412 1413 1400 1394 1395 1392 1394 1396 1395 1391 1395 1402 1404 1396 1396 1395 1395 1395 1397 1399 1400 1398
1381 1383 1386 1388 1392 1395 1397 1399 1400 1402 1402 1402 1401 1398 1394 1388 1389 1394 1394 1395 1397 1403 1406 1399 1388 1380 1374 1370 1372 1376 1384 1394 1401 1398 1387 1388 1385 1387 1395 1399 1388 1386 1387 1388 1389 1392 1392 1393 1393 1392 1391 1393 1394 1395
1378 1381 1384 1387 1390 1393 1395 1397 1398 1398 1398 1397 1393 1391 1387 1384 1386 1390 1391 1386 1387 1398 1399 1396 1382 1372 1369 1366 1361 1373 1378 1383 1389 1382 1383 1384 1385 1385 1391 1394 1384 1384 1384 1385 1387 1390 1390 1390 1390 1390 1390 1391 1391 1393
1376 1380 1383 1386 1389 1391 1393 1395 1395 1394 1394 1391 1389 1389 1388 1387 1388 1387 1384 1383 1386 1393 1396 1389 1377 1374 1371 1369 1365 1370 1373 1374 1379 1381 1383 1385 1385 1386 1390 1382 1381 1381 1382 1383 1384 1385 1385 1386 1387 1388 1389 1389 1391 1392
1374 1379 1382 1385 1388 1390 1391 1392 1392 1392 1390 1388 1389 1389 1389 1388 1388 1388 1388 1387 1389 1393 1388 1384 1381 1378 1375 1375 1374 1374 1374 1378 1380 1382 1384 1386 1388 1384 1374 1376 1375 1375 1377 1378 1380 1381 1380 1382 1384 1386 1388 1387 1390 1390
1372 1378 1381 1384 1386 1388 1389 1390 1390 1389 1389 1390 1389 1387 1386 1385 1385 1386 1386 1387 1388 1386 1382 1380 1379 1378 1377 1378 1380 1381 1382 1386 1390 1388 1386 1389 1381 1370 1367 1365 1368 1372 1375 1376 1376 1380 1381 1383 1384 1385 1385 1387 1389 1391
1373 1377 1380 1383 1386 1387 1388 1388 1388 1387 1388 1389 1388 1386 1384 1382 1381 1381 1381 1382 1383 1381 1378 1378 1378 1379 1380 1381 1381 1382 1385 1387 1390 1387 1389 1386 1377 1363 1360 1360 1363 1367 1370 1372 1375 1376 1378 1382 1383 1383 1384 1387 1390 1391
1373 1376 1380 1382 1384 1386 1387 1387 1387 1387 1386 1386 1385 1384 1384 1383 1380 1380 1382 1378 1378 1379 1378 1378 1379 1379 1380 1380 1382 1384 1384 1387 1385 1385 1388 1384 1365 1361 1358 1356 1357 1361 1366 1370 1372 1373 1377 1380 1381 1383 1385 1387 1390 1392
1374 1377 1379 1382 1383 1384 1386 1387 1387 1387 1386 1385 1384 1382 1381 1381 1388 1385 1390 1378 1381 1373 1374 1374 1377 1377 1378 1378 1380 1381 1387 1388 1380 1386 1378 1366 1361 1361 1359 1358 1358 1361 1365 1367 1370 1373 1376 1378 1381 1384 1386 1388 1390 1392
1375 1377 1380 1381 1383 1384 1386 1386 1388 1388 1387 1386 1385 1387 1386 1388 1383 1381 1379 1377 1374 1373 1373 1375 1376 1377 1378 1379 1380 1380 1379 1378 1376 1379 1366 1360 1361 1362 1363 1363 1363 1366 1368 1369 1372 1375 1377 1380 1383 1385 1387 1389 1391 1392
1376 1378 1379 1381 1383 1384 1385 1386 1388 1388 1388 1387 1387 1386 1380 1378 1378 1377 1375 1373 1370 1368 1369 1371 1372 1375 1377 1379 1377 1378 1380 1376 1376 1375 1365 1361 1363 1364 1366 1367 1368 1368 1370 1373 1375 1377 1379 1382 1384 1385 1387 1390 1391 1393
1380 1380 1380 1381 1383 1384 1386 1387 1388 1389 1387 1386 1383 1380 1378 1379 1376 1374 1372 1370 1367 1364 1363 1364 1367 1371 1373 1372 1376 1377 1374 1378 1371 1365 1361 1361 1364 1366 1367 1369 1370 1372 1373 1375 1377 1379 1381 1383 1384 1385 1387 1390 1392 1394
1382 1382 1382 1382 1383 1385 1386 1388 1389 1387 1385 1380 1377 1376 1376 1376 1375 1373 1370 1367 1366 1362 1363 1363 1367 1364 1368 1370 1368 1368 1372 1366 1361 1361 1361 1363 1364 1366 1368 1370 1372 1374 1375 1377 1379 1380 1382 1383 1385 1386 1388 1390 1391 1393
1382 1382 1382 1382 1383 1384 1386 1387 1386 1383 1378 1375 1374 1373 1373 1372 1371 1371 1369 1367 1366 1364 1363 1363 1363 1363 1372 1366 1368 1362 1360 1361 1361 1361 1363 1364 1365 1367 1368 1370 1372 1374 1375 1377 1378 1380 1382 1384 1385 1386 1388 1390 1391 1393
1383 1382 1383 1383 1383 1384 1384 1383 1382 1378 1372 1371 1370 1370 1369 1369 1368 1367 1367 1367 1366 1365 1364 1363 1363 1364 1363 1358 1358 1357 1358 1359 1360 1362 1362 1363 1364 1366 1368 1370 1372 1373 1375 1377 1379 1381 1382 1384 1386 1387 1389 1390 1391 1393
1379 1379 1381 1382 1383 1382 1380 1378 1377 1374 1371 1368 1367 1366 1366 1366 1365 1365 1365 1365 1364 1363 1362 1360 1358 1355 1354 1354 1354 1355 1355 1357 1358 1360 1362 1362 1364 1365 1367 1369 1371 1373 1375 1378 1380 1381 1383 1385 1386 1388 1390 1391 1392 1394
1377 1377 1378 1379 1381 1381 1378 1374 1371 1369 1367 1366 1365 1365 1364 1362 1362 1362 1362 1361 1362 1359 1356 1352 1351 1351 1352 1352 1353 1354 1355 1356 1357 1358 1359 1360 1363 1365 1366 1368 1371 1373 1375 1377 1379 1381 1383 1385 1387 1389 1390 1391 1392 1393
1374 1375 1376 1377 1378 1377 1373 1369 1368 1366 1366 1364 1364 1363 1362 1360 1358 1358 1358 1358 1355 1350 1350 1349 1349 1349 1349 1350 1352 1353 1354 1355 1356 1358 1359 1360 1361 1363 1365 1367 1370 1372 1374 1376 1378 1380 1382 1384 1386 1388 1390 1391 1393 1394
1371 1372 1373 1373 1374 1371 1366 1364 1365 1363 1364 1362 1361 1361 1360 1358 1355 1356 1355 1352 1348 1346 1346 1346 1346 1347 1348 1349 1350 1352 1353 1354 1355 1356 1357 1358 1360 1362 1364 1366 1368 1371 1373 1375 1377 1379 1381 1383 1385 1387 1388 1390 1392 1393
1368 1369 1368 1366 1365 1364 1362 1361 1360 1360 1359 1359 1360 1360 1357 1354 1354 1354 1354 1347 1343 1343 1343 1343 1344 1345 1347 1349 1350 1351 1352 1353 1354 1354 1355 1357 1358 1360 1362 1364 1366 1368 1371 1373 1375 1377 1379 1380 1382 1384 1386 1388 1390 1391
1367 1364 1363 1361 1360 1361 1361 1361 1358 1357 1359 1358 1357 1358 1354 1353 1357 1357 1349 1342 1341 1341 1342 1343 1344 1345 1346 1347 1349 1349 1350 1351 1352 1352 1354 1355 1357 1358 1360 1362 1364 1366 1368 1370 1372 1374 1376 1378 1379 1381 1383 1385 1387 1389
1365 1356 1357 1354 1356 1357 1357 1362 1361 1359 1357 1358 1357 1353 1352 1355 1358 1354 1344 1341 1341 1342 1342 1342 1343 1344 1344 1345 1346 1347 1348 1349 1350 1351 1352 1353 1355 1356 1358 1359 1361 1363 1365 1367 1369 1371 1373 1375 1376 1378 1380 1382 1384 1386
1361 1355 1350 1350 1350 1350 1352 1350 1350 1352 1357 1357 1354 1355 1358 1362 1361 1345 1340 1340 1341 1341 1340 1340 1341 1341 1341 1342 1343 1345 1346 1347 1348 1349 1350 1351 1352 1353 1355 1357 1359 1362 1363 1364 1366 1367 1369 1371 1373 1375 1377 1379 1380 1382
1351 1350 1352 1349 1348 1348 1350 1352 1353 1352 1348 1346 1348 1354 1356 1353 1347 1339 1339 1339 1339 1339 1338 1338 1338 1338 1338 1339 1340 1342 1343 1344 1346 1347 1348 1349 1350 1351 1353 1355 1356 1358 1359 1360 1362 1363 1364 1367 1369 1371 1373 1375 1377 1378
1347 1346 1347 1348 1347 1347 1346 1347 1345 1342 1341 1342 1345 1346 1342 1338 1338 1337 1337 1337 1337 1336 1336 1336 1335 1336 1336 1337 1338 1338 1339 1340 1342 1343 1344 1346 1347 1349 1351 1352 1354 1355 1356 1358 1359 1360 1361 1363 1365 1367 1369 1371 1373 1375
1345 1345 1345 1347 1348 1347 1342 1341 1340 1340 1340 1339 1339 1338 1337 1336 1336 1335 1334 1333 1332 1331 1331 1332 1332 1332 1333 1334 1334 1336 1337 1338 1339 1341 1342 1343 1345 1347 1348 1349 1351 1352 1353 1354 1356 1357 1359 1360 1362 1363 1365 1367 1369 1372
1345 1344 1343 1344 1343 1340 1339 1339 1338 1338 1337 1336 1336 1335 1333 1331 1328 1327 1326 1325 1325 1325 1325 1326 1327 1328 1329 1330 1331 1332 1333 1334 1336 1337 1338 1339 1341 1342 1344 1346 1348 1349 1350 1352 1353 1355 1356 1358 1360 1361 1363 1365 1368 1371
1343 1342 1341 1343 1341 1339 1337 1336 1335 1334 1333 1332 1331 1330 1330 1328 1326 1323 1321 1321 1320 1319 1320 1321 1322 1323 1324 1325 1326 1327 1328 1329 1330 1332 1333 1335 1336 1338 1340 1341 1343 1345 1347 1349 1351 1352 1354 1356 1358 1360 1362 1364 1367 1369
1342 1341 1340 1339 1339 1336 1335 1335 1333 1332 1331 1329 1328 1327 1326 1327 1325 1322 1320 1318 1318 1317 1316 1317 1318 1318 1319 1319 1320 1321 1322 1324 1325 1326 1327 1329 1331 1332 1334 1337 1339 1341 1344 1346 1348 1350 1352 1354 1356 1358 1361 1363 1366 1368
Wind_Speed
17 17 17 19 18 20 20 21 20 19 18 18 18 18 18 18 22 26 29 26 28 18 29 22 24 26 20 16 6 6 10 9 5 8 5 3 4 5 2 5 8 7 7 4 5 5 7 9 4 6 7 6 8 8
16 17 18 18 19 20 21 21 21 21 21 22 21 19 21 23 24 25 30 28 25 30 24 12 22 41 40 34 20 17 14 9 5 4 5 3 4 2 6 4 2 3 6 5 7 6 7 4 4 7 14 16 16 13
16 15 16 16 16 17 18 20 22 22 25 22 19 20 23 25 26 28 34 33 29 32 38 40 40 51 42 33 41 33 34 28 21 23 5 2 5 5 5 4 4 3 4 3 3 4 7 12 12 12 13 17 17 12
14 15 17 16 16 16 18 17 15 14 16 19 21 21 24 27 29 31 38 39 38 22 7 28 33 35 37 35 45 53 43 34 31 24 9 2 3 2 3 2 4 4 6 5 3 5 9 18 15 8 8 11 12 13
11 12 13 14 15 14 13 13 13 15 16 17 20 24 27 32 34 35 40 45 47 35 4 12 17 30 34 36 42 44 48 45 29 10 6 4 3 1 1 2 2 5 6 4 4 9 5 8 11 7 8 11 13 15
12 13 14 14 14 14 13 13 14 13 14 17 20 25 22 28 22 18 11 22 29 39 15 6 16 24 25 15 34 49 47 38 26 10 2 5 4 4 3 4 4 10 9 10 5 7 13 11 9 9 10 10 12 14
13 15 14 13 13 13 12 11 10 11 14 18 17 10 16 7 17 18 6 8 21 25 6 3 4 5 6 8 11 28 20 15 13 6 2 1 1 2 2 3 5 9 12 13 15 11 10 13 11 8 11 12 12 11
16 17 13 12 13 12 10 9 9 11 17 11 3 6 4 4 12 6 4 5 29 25 3 3 3 4 8 5 4 5 4 6 3 3 3 2 1 2 3 5 7 14 17 17 17 16 19 19 14 15 10 9 12 12
19 18 13 12 12 10 8 8 8 14 12 4 4 2 3 3 4 2 2 2 13 9 3 3 2 3 4 5 5 5 5 3 5 3 1 2 1 4 5 12 18 17 14 17 13 13 16 17 14 11 13 11 13 12
22 18 14 10 10 9 8 6 8 8 4 3 2 2 3 2 3 2 5 7 10 7 6 2 3 1 3 3 2 2 5 2 1 3 3 2 4 18 23 22 19 16 16 12 9 5 5 7 10 14 11 9 10 9
22 17 13 11 9 7 7 5 4 2 3 1 1 1 4 5 3 2 4 4 2 2 3 2 3 3 1 2 0 0 1 0 1 3 3 2 3 6 23 32 36 27 17 9 11 5 9 15 12 10 8 8 10 10
20 17 13 11 9 6 5 3 3 2 2 3 4 3 2 1 2 3 1 2 1 2 3 3 3 3 6 4 2 3 2 1 4 6 3 3 3 9 11 13 16 20 19 14 8 4 8 10 10 9 7 8 11 11
17 16 13 9 8 7 5 6 6 2 1 2 2 3 4 4 5 3 2 3 2 1 1 2 2 2 1 2 2 1 3 3 3 1 3 4 2 5 6 10 12 14 15 11 8 5 10 10 10 6 7 10 10 8
16 14 14 11 8 7 6 6 5 3 4 3 3 5 3 4 3 3 3 2 3 5 5 6 3 2 2 1 2 2 3 1 2 3 4 1 4 7 10 14 15 12 7 6 8 10 10 10 9 9 8 9 9 6
11 11 11 12 10 8 7 8 6 3 3 2 1 3 4 4 6 13 8 8 12 15 13 5 5 4 2 2 2 2 2 3 5 4 2 5 13 13 10 7 5 5 6 10 11 11 11 10 11 12 11 8 5 5
8 6 1 6 7 7 6 8 10 5 3 3 4 3 3 0 3 2 7 8 7 10 6 4 2 3 2 3 3 5 3 4 4 3 1 12 13 11 9 7 5 4 8 11 11 11 12 10 8 9 10 8 6 4
3 2 3 2 5 6 7 8 3 5 5 4 3 7 6 7 7 6 8 9 12 7 1 1 3 5 1 1 2 3 4 3 3 2 5 10 11 12 9 7 6 7 8 10 11 10 9 8 7 9 9 9 8 8
5 1 0 2 4 10 9 5 4 5 5 7 3 4 5 8 9 8 6 7 8 7 4 2 1 1 3 3 3 3 3 3 3 4 7 8 9 10 11 12 11 9 8 10 11 10 10 10 9 9 8 9 9 10
7 6 5 4 3 5 4 6 8 4 6 3 5 7 6 7 9 8 9 9 9 9 7 2 1 2 3 3 3 5 9 9 9 6 7 7 9 12 14 12 10 10 11 11 11 10 10 9 8 8 8 7 7 8
7 12 10 6 4 2 4 4 4 4 4 3 5 6 5 6 8 8 9 10 10 6 2 3 3 4 5 4 5 4 4 10 10 7 7 9 10 13 13 12 12 11 11 11 10 9 9 8 8 7 5 6 5 5
4 6 10 11 8 11 5 4 6 5 3 5 4 6 5 7 8 8 6 5 5 4 2 7 8 5 6 6 5 5 6 9 12 9 11 13 13 14 12 14 13 12 12 10 11 11 10 10 8 7 6 3 2 4
7 8 6 10 7 5 7 8 5 2 3 3 2 5 4 2 4 6 5 5 5 9 11 12 12 11 11 8 8 7 7 8 8 8 7 10 15 16 15 16 15 13 12 10 10 9 8 9 9 9 7 5 4 3
8 7 6 8 7 6 5 6 5 5 2 3 3 1 3 3 3 4 2 5 6 8 12 12 11 8 8 8 9 8 9 9 9 10 10 9 10 14 15 16 16 14 14 12 10 10 10 10 9 10 9 9 8 7
7 4 5 6 10 4 2 3 4 3 2 2 2 2 3 3 4 0 3 4 6 8 10 10 10 9 8 7 6 6 7 8 10 11 10 11 13 13 13 15 16 14 13 12 12 11 12 13 12 11 11 11 11 10
4 5 5 5 5 2 3 3 2 1 3 3 2 3 2 3 1 2 3 3 4 5 6 6 9 9 9 8 8 7 8 9 10 11 11 11 11 12 13 13 14 13 13 15 15 14 14 13 14 13 13 14 13 11
2 5 6 5 3 5 5 3 3 5 2 2 4 2 1 2 1 5 2 1 2 4 5 8 11 11 12 11 10 10 9 8 11 11 11 12 13 14 14 16 15 14 13 13 14 14 15 15 14 14 14 14 14 12
3 4 5 6 3 3 1 2 2 3 3 4 2 1 3 1 5 4 3 4 4 6 8 9 9 12 13 14 13 10 9 9 8 9 8 9 9 13 14 13 14 13 13 14 15 16 16 16 15 15 15 15 15 14
6 3 3 3 4 4 3 1 2 4 4 5 5 2 6 7 4 3 3 1 1 5 4 5 6 7 8 10 12 12 12 13 14 9 10 11 12 10 10 10 10 10 11 13 11 10 15 17 16 15 15 14 14 13
3 3 3 1 1 1 5 6 4 5 4 8 5 3 4 5 4 5 5 7 10 11 11 9 8 8 8 10 11 9 12 19 17 16 13 13 14 14 14 12 11 11 11 12 13 13 11 13 14 14 14 13 12 13
3 3 2 1 3 4 4 5 3 4 4 5 4 5 7 13 16 15 18 20 22 22 19 14 11 12 12 12 13 13 13 12 15 16 15 15 12 10 14 16 14 10 11 12 13 12 12 12 13 14 14 14 14 14
2 3 2 3 3 4 7 8 9 10 10 10 14 14 20 20 23 24 21 21 21 21 19 16 15 15 15 16 16 17 18 17 16 19 22 20 18 16 15 15 14 13 11 13 14 12 13 13 13 12 12 13 13 13
4 5 4 1 4 4 5 4 4 4 4 5 5 6 5 5 4 5 6 7 9 10 11 12 15 17 17 17 18 19 19 18 17 18 20 20 17 17 17 15 15 16 14 12 14 13 14 13 13 12 12 13 13 12
3 3 4 2 3 3 3 3 2 3 3 3 4 3 3 3 5 4 7 9 10 10 10 8 9 13 13 13 15 15 15 16 14 14 14 14 16 16 15 15 14 17 14 14 15 15 15 15 14 13 13 12 12 13
Wind_Direction
211 214 218 218 219 218 215 215 224 229 234 240 243 241 236 231 224 230 237 228 219 246 259 252 246 245 241 240 230 290 337 258 232 212 224 213 244 206 177 197 163 162 164 180 188 222 260 222 255 185 210 225 261 259
222 223 218 221 213 212 217 223 230 233 240 252 247 243 238 234 234 234 238 237 237 237 251 255 263 254 248 245 238 237 233 284 290 279 207 171 222 213 165 204 156 169 180 176 170 209 224 199 238 281 292 288 286 277
215 216 214 218 220 222 224 230 231 237 240 238 239 238 238 239 239 234 239 242 235 246 258 258 255 258 249 240 243 243 245 246 247 243 267 239 229 153 170 220 139 199 145 176 149 218 230 241 249 262 277 284 290 267
221 218 223 224 211 229 228 227 222 219 223 232 245 253 255 253 253 245 243 239 237 231 250 265 267 255 261 253 243 237 240 243 253 265 285 224 257 212 173 170 169 182 140 170 278 279 273 273 269 253 255 263 256 253
214 209 206 213 210 208 204 205 215 228 242 253 259 266 268 267 260 252 247 241 236 215 269 259 262 271 253 261 238 233 233 235 235 244 224 192 268 182 109 48 243 186 166 162 213 223 219 266 297 284 257 257 243 222
205 209 205 196 197 202 205 217 231 243 255 269 275 283 276 284 248 218 201 233 226 220 239 259 274 277 292 211 231 233 225 221 223 224 202 221 179 120 142 206 249 211 199 224 214 253 236 275 278 294 290 286 276 248
203 193 192 198 197 201 213 226 238 257 268 281 275 286 316 207 183 183 237 253 211 201 223 244 253 261 294 293 44 179 182 184 196 194 104 102 50 107 114 180 232 211 219 245 258 247 261 252 268 286 272 283 258 230
202 197 199 203 202 209 217 231 252 271 277 296 224 351 32 350 178 254 85 69 183 176 194 256 283 320 358 8 58 70 139 140 69 108 90 92 58 65 243 201 220 250 269 262 259 257 262 273 266 249 257 244 219 208
203 197 201 204 203 206 218 241 262 278 304 242 301 298 193 205 222 133 124 180 166 180 226 212 218 249 34 47 29 24 28 47 14 55 4 93 300 233 215 210 223 248 252 263 275 281 268 244 224 219 215 216 211 192
191 189 195 192 191 205 224 236 246 278 262 202 295 257 189 220 275 244 164 177 200 218 232 170 142 302 18 67 80 91 26 105 115 247 139 160 252 241 244 253 259 247 255 256 231 190 203 223 221 201 209 221 223 201
175 184 191 192 198 215 223 233 262 232 145 16 36 318 330 314 298 210 189 167 200 303 211 170 161 138 153 98 101 115 157 145 126 258 138 251 265 242 245 246 245 241 246 239 191 240 282 249 217 209 203 207 208 208
177 185 193 201 211 215 204 189 138 169 64 354 331 317 299 297 336 56 314 310 133 221 188 161 202 167 166 161 119 189 174 101 225 150 154 260 252 322 299 255 243 238 228 193 198 289 237 215 211 210 219 211 199 197
184 196 202 204 208 195 185 168 186 181 304 329 316 329 357 344 21 95 310 300 319 1 110 83 79 89 90 116 92 126 98 218 107 94 225 228 6 15 78 115 126 148 163 179 170 195 193 185 186 194 200 181 176 177
179 189 194 200 190 184 189 196 190 344 345 339 1 329 146 305 252 205 213 233 292 237 252 236 162 167 168 126 168 136 235 209 236 239 237 306 149 127 117 115 128 121 129 135 160 165 161 167 167 150 149 160 165 164
162 177 185 186 190 190 203 199 189 330 323 303 248 247 221 225 268 278 281 282 275 279 263 201 155 153 176 162 203 97 297 235 211 231 244 187 165 151 149 138 117 113 135 157 159 156 156 161 161 151 145 154 153 185
74 85 207 184 194 186 187 193 216 266 267 249 242 262 273 198 292 279 286 265 300 319 192 153 119 156 205 175 145 214 164 227 250 224 165 171 177 177 166 153 126 141 157 161 158 159 155 156 161 164 162 170 164 156
45 26 53 98 151 174 177 197 240 236 240 222 236 230 253 269 253 275 295 302 324 336 6 106 115 194 120 163 228 176 206 220 231 145 168 190 195 192 187 180 209 191 178 171 159 161 165 164 165 165 170 173 177 172
290 292 302 97 173 179 199 218 246 253 244 234 188 218 236 275 279 292 292 331 328 338 336 4 35 156 181 195 260 238 178 200 235 178 213 220 229 214 195 202 199 204 188 163 164 166 167 167 170 174 177 186 187 185
214 223 246 301 294 206 217 220 209 262 250 238 246 269 267 282 291 293 293 307 302 307 285 259 171 206 230 216 191 205 203 203 210 203 224 220 215 203 196 198 199 179 172 171 171 171 176 178 182 185 187 189 191 188
264 231 233 237 239 282 258 227 219 251 256 262 230 241 248 254 278 282 278 285 289 288 249 221 213 207 203 212 212 234 239 206 193 175 205 206 206 203 203 211 186 180 178 179 182 182 181 181 183 187 204 210 200 198
228 216 220 218 226 220 271 248 235 234 240 224 254 239 271 258 254 259 268 270 222 229 242 234 233 248 229 217 232 225 209 200 207 229 205 197 204 203 203 186 183 187 192 192 197 198 199 197 190 196 200 212 196 142
211 194 211 217 222 235 249 231 237 228 225 251 232 218 258 281 244 231 230 208 242 237 239 252 258 257 225 227 230 216 210 193 207 216 227 220 206 204 200 196 190 197 203 208 205 209 210 204 204 201 203 205 207 200
212 231 208 204 214 228 243 212 213 210 175 231 182 211 271 241 225 189 248 233 250 254 251 252 258 239 221 228 221 221 208 200 214 229 235 228 215 217 219 212 207 215 214 212 217 217 214 209 213 215 218 223 224 222
213 218 215 212 206 243 231 221 217 229 221 177 173 244 239 234 173 116 243 250 238 251 246 241 225 206 193 199 219 230 217 213 229 227 227 226 216 215 225 222 217 222 224 219 219 221 221 221 220 224 226 228 231 237
219 224 211 249 207 190 205 292 281 191 227 215 183 287 260 170 107 255 235 265 303 295 229 225 225 229 238 240 241 244 225 226 229 231 227 225 226 216 215 220 218 216 223 225 225 225 225 224 228 229 231 232 237 244
190 219 175 203 225 185 196 183 210 211 170 192 232 285 118 94 151 250 240 237 292 278 258 248 241 244 244 242 238 238 234 238 227 228 228 226 228 227 222 214 215 218 224 224 226 228 229 232 232 232 233 232 235 248
228 274 229 222 219 199 334 245 188 113 165 203 228 118 84 177 243 253 251 232 243 271 265 256 248 257 260 249 231 232 232 230 231 237 237 228 235 227 223 223 228 238 240 237 239 238 231 231 233 235 236 237 245 249
232 261 182 205 211 216 177 109 177 208 226 195 130 174 186 197 234 219 199 185 327 346 320 268 261 263 247 240 236 234 237 235 221 230 242 228 217 215 213 217 218 229 232 234 240 246 230 228 231 236 240 240 242 226
238 218 199 346 313 240 215 196 219 226 213 189 164 215 237 225 241 242 256 292 300 302 306 308 279 257 244 239 248 245 244 237 225 220 231 230 225 226 220 217 225 233 238 232 231 239 233 224 226 229 231 234 228 218
239 206 140 131 150 229 241 225 277 292 267 261 268 271 271 273 284 288 286 286 283 285 294 292 278 254 242 241 243 239 242 241 232 238 249 253 255 254 238 230 234 242 234 227 223 226 216 213 216 217 218 215 206 207
234 206 184 203 239 252 268 277 272 272 271 270 271 268 275 291 292 289 285 285 284 283 276 259 253 248 248 247 247 248 248 242 244 250 250 252 250 236 236 237 241 247 252 236 228 226 218 213 216 220 210 202 199 197
230 209 154 207 272 262 282 263 241 242 251 263 262 249 267 266 273 281 276 304 302 291 274 260 254 258 261 260 251 248 249 251 252 251 248 249 254 263 252 240 236 237 231 234 228 223 214 213 210 205 200 196 195 194
264 241 234 261 301 295 256 227 268 302 247 252 246 247 246 239 243 279 292 306 309 296 282 272 263 252 265 264 254 252 250 248 249 250 248 240 241 238 224 224 228 222 223 225 220 217 212 209 208 199 196 198 197 189